Regional Weather Roundup
Issued by NWS

Home | Current Version | Previous Version | Graphics & Text | Print | Product List | Glossary On
Versions: 1 2 3 4 5 6 7 8 9 10 11 12 13 14 15 16 17 18 19 20 21 22 23 24 25 26 27 28 29 30 31 32 33 34 35 36 37 38 39 40 41 42 43 44 45 46 47 48 49 50
000
ASUS43 KTOP 271059
RWRKS

WEATHER ROUNDUP FOR KANSAS
NATIONAL WEATHER SERVICE GOODLAND KS
600 AM CDT WED AUG 27 2014

NOTE:  "FAIR" INDICATES FEW OR NO CLOUDS BELOW 12,000 FEET WITH NO
SIGNIFICANT WEATHER AND/OR OBSTRUCTIONS TO VISIBILITY.

KSZ001>006-013>018-027>032-041>047-271200-
NORTHWEST KANSAS

CITY           SKY/WX    TMP DP  RH WIND       PRES   REMARKS
GOODLAND       CLOUDY    64  63  96 E6        30.15R
HAYS           CLOUDY    72  64  78 W5        30.10S
HILL CITY      CLOUDY    69  66  90 CALM      30.11F
RUSSELL        CLOUDY    72  67  84 SW5       30.09R
$$

KSZ061>065-074>080-084>089-271200-
SOUTHWEST KANSAS

CITY           SKY/WX    TMP DP  RH WIND       PRES   REMARKS
DODGE CITY     RAIN      67  64  90 S9        30.16R FOG
ELKHART          N/A     65  61  87 SE14        N/A
GARDEN CITY    CLOUDY    66  65  96 SE16      30.11F
GREAT BEND     CLOUDY    72  64  78 W7        30.13R
LIBERAL        CLOUDY    66  61  82 E13G18    30.14S
$$

KSZ066>073-081>083-090>101-271200-
SOUTHEAST KANSAS

CITY           SKY/WX    TMP DP  RH WIND       PRES   REMARKS
CHANUTE        CLEAR     72  67  84 SE9       30.06S
COFFEYVILLE    CLEAR     73  68  84 S3        30.06R
HUTCHINSON     PTCLDY    73  65  75 W3        30.09R
NEWTON         CLEAR     75  63  64 W6        30.12R
PARSONS        CLEAR     70  67  90 CALM      30.07S
WICHITA INTL   MOCLDY    73  67  81 NW5       30.08R
WICHITA JABRA  CLEAR     75  66  73 S3        30.07R
WINFIELD       PTCLDY    73  67  81 S6        30.08R
$$

KSZ007>012-019>026-033>040-048>060-102>105-271200-
NORTHEAST KANSAS

CITY           SKY/WX    TMP DP  RH WIND       PRES   REMARKS
CONCORDIA      CLOUDY    70  69  97 SE3       30.06F
EMPORIA        CLEAR     72  67  84 S6        30.06R
LAWRENCE       PTCLDY    75  70  84 SE5       30.06R
MANHATTAN      PTCLDY    73  70  90 CALM      30.04S
OLATHE IND     CLEAR     71  67  87 S6        30.08R
OLATHE EXE     CLEAR     72  70  93 SE5       30.07R
SALINA         MOCLDY    74  68  81 S3        30.07R
TOPEKA BILLARD CLEAR     76  72  87 SE3       30.05S
TOPEKA FORBES  CLEAR     73  70  90 SE5       30.06R
$$


USA.gov is the U.S. government's official web portal to all federal, state and local government web resources and services.